Regional Weather Roundup
Issued by NWS Upton, NY

Current Version | Previous Version | Graphics & Text | Print | Product List | Glossary Off
Versions: 1 2 3 4 5 6 7 8 9 10 11 12 13 14 15 16 17 18 19 20 21 22 23 24 25 26 27 28 29 30 31 32 33 34 35 36 37 38 39 40 41 42 43 44 45 46 47 48 49 50

000
ASUS41 KOKX 261205
RWROKX

REGIONAL WEATHER ROUNDUP
NATIONAL WEATHER SERVICE NEW YORK NY
700 AM EST THU FEB 26 2015

NOTE: "FAIR" INDICATES FEW OR NO CLOUDS BELOW 12,000 FEET WITH NO
SIGNIFICANT WEATHER AND/OR OBSTRUCTIONS TO VISIBILITY.

NYZ071-072-176-178-NJZ106-104-261300-
NEW YORK CITY METRO AREA


CITY           SKY/WX    TMP DP  RH WIND       PRES   REMARKS
CENTRAL PARK   CLOUDY    22   3  44 NE8       30.03R WCI  12
LAGUARDIA APRT CLOUDY    22   4  46 NE13      30.02S WCI  10
KENNEDY INTL   CLOUDY    23   5  46 N18       30.02S WCI   9
NEWARK/LIBERTY CLOUDY    21   7  54 N14       30.02R WCI   8
BRNX BOT. GARD   N/A    N/A N/A N/A N7        30.03S
TETERBORO      CLOUDY    21   4  47 N8        30.02R WCI  11
$$

NYZ177-179-078>081-261300-
LONG ISLAND NEW YORK

CITY           SKY/WX    TMP DP  RH WIND       PRES   REMARKS
FARMINGDALE    CLOUDY    22   8  55 NE14      29.99F WCI   9
ISLIP          CLOUDY    22   8  55 NE16      29.98F WCI   8
SHIRLEY        CLOUDY    22   8  55 N8        30.01F WCI  12
WESTHAMPTON    CLOUDY    21   7  54 NE13      30.01F WCI   9
MONTAUK POINT    N/A     24   8  50 NE8       30.03F WCI  15
$$

NYZ052-065-067-261300-
HUDSON VALLEY

CITY           SKY/WX    TMP DP  RH WIND       PRES   REMARKS
WHITE PLAINS   CLOUDY    18   3  52 N8        29.98F WCI   8
NEWBURGH       CLOUDY    16   7  67 NE12      30.02  WCI   3
MONTGOMERY     CLOUDY    16   5  62 NE9       30.01S WCI   4
POUGHKEEPSIE   CLOUDY    18   4  54 N8        30.05S WCI   8
ALBANY         CLOUDY    12   0  58 N9        30.09R WCI   0
$$

NJZ001-105-106-008-010-013-015-019>022-104-261300-
NEW JERSEY

CITY           SKY/WX    TMP DP  RH WIND       PRES   REMARKS
NEWARK/LIBERTY CLOUDY    21   7  54 N14       30.02R WCI   8
TETERBORO      CLOUDY    21   4  47 N8        30.02R WCI  11
CALDWELL       CLOUDY    19   2  47 NE8       30.02S WCI   9
MORRISTOWN     CLOUDY    19   3  49 NE7       30.01R WCI  10
SOMERVILLE     CLOUDY    23   2  40 N6        29.99R WCI  16
SUSSEX         CLOUDY    17   3  54 N8        30.00S WCI   7
ANDOVER          N/A     16   2  54 NE6       30.00R WCI   7
TRENTON        CLOUDY    24   5  44 NE9       29.97R WCI  14
MILLVILLE      LGT SNOW  28  25  88 NE8       29.92R FOG     WCI  20
ATLANTIC CITY  LGT SNOW  29  26  89 N10       29.91F VSB 3/4 WCI  20
WRIGHTSTOWN    CLOUDY    26  13  58 NE10      29.95R WCI  15
TOMS RIVER     CLOUDY    27  16  63 NE14G22   29.96R WCI  15
BELMAR         CLOUDY    25   7  46 NE9G18    29.97R WCI  15
$$

PAZ047>061-062-071-261300-
EASTERN PENNSYLVANIA

CITY           SKY/WX    TMP DP  RH WIND       PRES   REMARKS
PHILADELPHIA   LGT SNOW  28  12  51 NE14G22   29.98R WCI  17
ALLENTOWN      CLOUDY    20   2  45 NE10      29.98S WCI   9
SCRANTON       CLOUDY    15   2  56 N5        29.98R WCI   8
$$

CTZ002-004>006-009-010-012-RIZ004-006-007-MAZ004-011-015-261300-
SOUTHERN NEW ENGLAND
 IN CT

CITY           SKY/WX    TMP DP  RH WIND       PRES   REMARKS
BRADLEY INTL   CLOUDY    18   4  54 N5        30.05R WCI  11
HARTFORD       CLOUDY    18   5  57 N8        30.07R WCI   8
DANBURY        CLOUDY    16   2  54 N12       30.01S WCI   3
WTRBRY/OXFORD  CLOUDY    16   0  48 N14       29.98S WCI   1
BRIDGEPORT     CLOUDY    20   6  55 NE12      30.03S WCI   8
MERIDEN        CLOUDY    19   4  51 N10       30.03S WCI   7
NEW HAVEN      CLOUDY    20   5  52 NE9       30.03R WCI   9
CHESTER        PTSUNNY   19   5  53 NE5       30.01S WCI  13
GROTON         CLOUDY    20   5  52 NE8       30.03S WCI  10
WILLIMANTIC    CLOUDY    18   4  54 N9        30.04F WCI   7

 IN RI

CITY           SKY/WX    TMP DP  RH WIND       PRES   REMARKS
PROVIDENCE     CLOUDY    19   5  54 NE10      30.05F WCI   7
BLOCK ISLAND   CLOUDY    21   7  53 NE14G21   29.99F WCI   8
WESTERLY       CLOUDY    20   4  50 NE6       30.03F WCI  12

 IN MA

CITY           SKY/WX    TMP DP  RH WIND       PRES   REMARKS
BOSTON         CLOUDY    17   5  59 N9        30.07R WCI   6
WORCESTER      CLOUDY    13  32 100 NE6       29.98R WCI   4
WESTFIELD      CLOUDY    17   3  54 NE3       30.04R
PROVINCETOWN   CLOUDY    25  12  58 N12G17    30.04F WCI  14
NANTUCKET      CLOUDY    25  15  66 N12       30.01F WCI  14
$$

ANZ330-335-338-340-345-350-353-355-261300-
COASTAL MARINE OBSERVATIONS


STATION/POSITION TIME  SKY/WX   TEMP    WIND        PRES    VSBY  WAVE
                                AIR SEA DIR/SP/G                  HT/PER
                 (UTC)          (F)     (DEG/KT/KT) (MB)    (MI)  (FT/S)
NY HARB ENTRANCE 1200            26 39   30/ 17/ 21 1015.3          3/ 4
4S FIRE IS       NOT AVBL
20S FIRE ISLAND  1100               34              1015.7          4/ 5
23SW MTP         1200                                 N/A           3/10
HUDSON CANYON    NOT AVBL
EXECUTION ROCKS  NOT AVBL
WESTERN LI SOUND NOT AVBL
CENTRAL LI SOUND NOT AVBL
EASTERN LI SOUND NOT AVBL
ROBBINS REEF     1100            22      10/ 15/ 17 1014.4
$$


>>>>>>>>>>>>>>>>>>>>>>>>>>>> KEY <<<<<<<<<<<<<<<<<<<<<<<<<<<
>                                                          <
>     SKY/WX - SKY CONDITION/PRESENT WEATHER               <
>     TMP    - TEMPERATURE IN FAHRENHEIT                   <
>     DP     - DEWPOINT IN FAHRENHEIT                      <
>     RH     - RELATIVE HUMIDITY IN PERCENT                <
>     WIND   - DIRECTION AND SPEED IN MPH                  <
>     PRES   - MEAN SEA LEVEL PRESSURE IN INCHES OF HG     <
>     WCI    - WIND CHILL INDEX                            <
>     VSB    - VISIBILITY IN MILES                         <
>     HX     - HEAT INDEX                                  <
>     TC     - TEMPERATURE IN CELSIUS                      <
>     VRB    - VARIABLE WIND DIRECTION                     <
>                                                          <
>>>>>>>>>>>>>>>>>>>>>>>>>>>> KEY <<<<<<<<<<<<<<<<<<<<<<<<<<<





USA.gov is the U.S. government's official web portal to all federal, state and local government web resources and services.